Nuiqsut, AK

3:59 PM AKST on January 18, 2017 (GMT -0900)
Nuiqsut

Weather History for PAQT - June, 2013

Change the Weather History Date:

Wednesday, June 12, 2013

  Actual Average (PAKU) Record (PAKU)
Temperature  
Mean Temperature 54 °F -  
Max Temperature 64 °F 42 °F 64 °F (2016)
Min Temperature 43 °F 31 °F 26 °F (2003)
Degree Days  
Heating Degree Days 11    
Growing Degree Days 4 (Base 50)    
Moisture  
Dew Point 45 °F    
Average Humidity 72    
Maximum Humidity 90    
Minimum Humidity 52    
Precipitation  
Precipitation 0.00 in - - ()
Sea Level Pressure  
Sea Level Pressure 30.18 in    
Wind  
Wind Speed 6 mph (NE)    
Max Wind Speed 16 mph    
Max Gust Speed -    
Visibility 10 miles    
Events      
Averages and records for this station are not official NWS values.
T = Trace of Precipitation, MM = Missing Value Source: NWS Daily Summary

Daily Weather History Graph

Daily Weather History Graph

Search for Another Location

Airport or City:

Trip Planner

Search our weather history database for the weather conditions in past years. The results will help you decide how hot, cold, wet, or windy it might be!

Date:

Astronomy

Dec. 31, 1969 Rise Set
Actual Time Sun does not rise Sun does not rise
Civil Twilight Sun does not rise Sun does not rise
Nautical Twilight Sun does not rise Sun does not rise
Astronomical Twilight Sun does not rise Sun does not rise
Moon 8:13 AM AKDT (6/12) 2:00 AM AKDT (6/12)
Length of Visible Light 24h 00m
Length of Day
24h 00m
Waxing Crescent, 15% of the Moon is Illuminated
Jun 12
Waxing Crescent
Jun 16
First Quarter
Jun 23
Full
Jun 29
Last Quarter
Jul 7
New

Hourly Weather History & Observations

Time (AKDT) Temp. Windchill Dew Point Humidity Pressure Visibility Wind Dir Wind Speed Gust Speed Precip Events Conditions
12:53 AM 50.0 °F - 46.0 °F 86% 30.22 in 10.0 mi North 4.6 mph - N/A   Clear
1:53 AM 48.9 °F - 45.0 °F 86% 30.22 in 10.0 mi Calm Calm - N/A   Clear
2:53 AM 46.9 °F - 44.1 °F 90% 30.22 in 10.0 mi NNE 4.6 mph - N/A   Clear
3:53 AM 48.0 °F - 44.1 °F 86% 30.22 in 10.0 mi North 4.6 mph - N/A   Clear
4:53 AM 48.0 °F - 42.1 °F 80% 30.22 in 10.0 mi North 4.6 mph - N/A   Clear
5:53 AM 48.0 °F - 43.0 °F 83% 30.22 in 10.0 mi North 3.5 mph - N/A   Clear
6:53 AM 48.9 °F - 43.0 °F 80% 30.22 in 10.0 mi Calm Calm - N/A   Clear
7:53 AM 51.1 °F - 43.0 °F 74% 30.22 in 10.0 mi East 3.5 mph - N/A   Clear
8:53 AM 53.1 °F - 43.0 °F 69% 30.22 in 10.0 mi Calm Calm - N/A   Clear
9:53 AM 57.0 °F - 44.1 °F 62% 30.21 in 10.0 mi SE 3.5 mph - N/A   Clear
10:53 AM 59.0 °F - 45.0 °F 60% 30.20 in 10.0 mi Calm Calm - N/A   Clear
11:53 AM 61.0 °F - 46.0 °F 58% 30.20 in 10.0 mi Calm Calm - N/A   Clear
12:53 PM 62.1 °F - 44.1 °F 52% 30.19 in 10.0 mi East 3.5 mph - N/A   Clear
1:53 PM 59.0 °F - 45.0 °F 60% 30.19 in 10.0 mi NE 11.5 mph - N/A   Clear
2:53 PM 57.9 °F - 45.0 °F 62% 30.18 in 10.0 mi NE 11.5 mph - N/A   Clear
3:53 PM 60.1 °F - 46.9 °F 62% 30.17 in 10.0 mi NE 11.5 mph - N/A   Clear
4:53 PM 62.1 °F - 48.0 °F 60% 30.15 in 10.0 mi ENE 15.0 mph - N/A   Clear
5:53 PM 62.1 °F - 48.9 °F 62% 30.14 in 10.0 mi ENE 16.1 mph - N/A   Clear
6:53 PM 62.1 °F - 50.0 °F 65% 30.12 in 10.0 mi NE 13.8 mph - N/A   Clear
7:53 PM 59.0 °F - 50.0 °F 72% 30.12 in 10.0 mi North 11.5 mph - N/A   Clear
8:53 PM 53.1 °F - 45.0 °F 74% 30.13 in 10.0 mi North 13.8 mph - N/A   Clear
9:53 PM 51.1 °F - 42.1 °F 71% 30.14 in 10.0 mi NNE 12.7 mph - N/A   Clear
10:53 PM 48.0 °F - 41.0 °F 77% 30.14 in 10.0 mi North 11.5 mph - N/A   Clear
11:53 PM 43.0 °F 37.7 °F 39.0 °F 86% 30.15 in 10.0 mi NNE 9.2 mph - N/A   Mostly Cloudy